Location: Mannheim
(49.4880°N, 8.4650°E)
Time: 05:04:24
(UTC+02:00)

ISS - Pass Details

Date: 23 May 2022
Orbit: 414 x 420 km, 51.6° (Epoch: 03 July)

Event Time Altitude Azimuth Distance (km) Brightness Sun altitude
Rises 23:57:29 0° 288° (WNW) 2,368 0.7 -17.5°
Reaches altitude 10° 23:59:36 10° 287° (WNW) 1,501 -0.5 -17.6°
Maximum altitude 00:02:57 73° 203° (SSW) 441 -3.9 -17.8°
Enters shadow 00:03:27 59° 144° (SE) 489 -3.8 -17.8°
